Regional Weather Roundup
Issued by NWS Wilmington, NC

Home | Current Version | Previous Version | Text Only | Print | Product List | Glossary On
Versions: 1 2 3 4 5 6 7 8 9 10 11 12 13 14 15 16 17 18 19 20 21 22 23 24 25 26 27 28 29 30 31 32 33 34 35 36 37 38 39 40 41 42 43 44 45 46 47 48 49 50
000
ASUS42 KILM 272313
RWRILM
RWRILM
REGIONAL HOURLY WEATHER ROUNDUP
NATIONAL WEATHER SERVICE WILMINGTON NC
700 PM EDT WED MAY 27 2015

NOTE: "FAIR" INDICATES FEW OR NO CLOUDS BELOW 12,000 FEET WITH NO
SIGNIFICANT WEATHER AND/OR OBSTRUCTIONS TO VISIBILITY.

...............WFO WILMINGTON COUNTY WARNING AREA...............

......COASTAL NC AND SC COUNTIES......

CITY           SKY/WX    TMP DP  RH WIND       PRES   REMARKS
WILMINGTON     MOSUNNY   77  67  71 S13       30.21F
N MYRTLE BEACH MOSUNNY   78  66  66 S10       30.21F
MYRTLE BEACH   MOSUNNY   79  66  65 S14       30.22F

......INLAND NC AND SC COUNTIES.......

CITY           SKY/WX    TMP DP  RH WIND       PRES   REMARKS
LUMBERTON      LGT RAIN  74  72  93 SW6       30.20S
ELIZABETHTOWN  LGT RAIN  77  69  76 S5        30.20S
WHITEVILLE     PTSUNNY   78  65  65 S6        30.20S
FLORENCE       PTSUNNY   77  70  79 S9        30.19S
DARLINGTON     MOSUNNY   77  66  69 SE12      30.20S

....................REST OF NORTH CAROLINA......................

.........EASTERN NC.........

CITY           SKY/WX    TMP DP  RH WIND       PRES   REMARKS
CAPE HATTERAS  SUNNY     75  61  61 S14       30.24S
JACKSONVILLE   PTSUNNY   77  64  65 S9        30.22S
MOREHEAD CITY  SUNNY     75  64  68 S12       30.23S
KENANSVILLE    PTSUNNY   78  66  67 SE5       30.21R
NEW BERN       MOSUNNY   77  65  66 S12       30.22S
ELIZABETH CITY SUNNY     78  66  66 S10       30.20S

.........CENTRAL NC.........

CITY           SKY/WX    TMP DP  RH WIND       PRES   REMARKS
RALEIGH DURHAM TSTM      73  68  84 CALM      30.18R
ROCKY MOUNT    PTSUNNY   80  70  71 SW22G33   30.18R
ROANOKE RAPIDS NOT AVBL
FAYETTEVILLE   PTSUNNY   78  70  76 SW12      30.19R
HOFFMAN        MOSUNNY   79  66  64 S10G20    30.23R

.........WESTERN NC.........

CITY           SKY/WX    TMP DP  RH WIND       PRES   REMARKS
CHARLOTTE      MOSUNNY   81  62  52 SW5       30.18F
GREENSBORO     PTSUNNY   81  63  54 SW12      30.17S
HICKORY        NOT AVBL
BOONE          NOT AVBL
ASHEVILLE      NOT AVBL

.....................REST OF SOUTH CAROLINA.....................

.........EASTERN SC.........

CITY           SKY/WX    TMP DP  RH WIND       PRES   REMARKS
CHARLESTON     MOSUNNY   79  66  64 SE8       30.20S
BEAUFORT MCAS  MOSUNNY   82  67  60 S6        30.20R
HILTON HEAD    MOSUNNY   79  66  65 SE6       30.21R

.........CENTRAL SC.........

CITY           SKY/WX    TMP DP  RH WIND       PRES   REMARKS
COLUMBIA       PTSUNNY   79  70  74 E6        30.16F
ORANGEBURG     PTSUNNY   81  68  64 S6        30.19S
SUMTER SHAW    PTSUNNY   80  70  73 SE7       30.18S

.........WESTERN SC.........

CITY           SKY/WX    TMP DP  RH WIND       PRES   REMARKS
GREENVILLE     NOT AVBL
ROCK HILL      SUNNY     81  65  58 SW3       30.18F
ANDERSON       MOSUNNY   80  64  58 W5        30.18S
CLEMSON        NOT AVBL
GREENWOOD      PTSUNNY   81  67  62 CALM      30.18F


...................COASTAL AND OFFSHORE REPORTS..................

................LOCAL PIERS AND NC RESERVE................


STATION/POSITION TIME  SKY/WX   TEMP    WIND        PRES    VSBY
                                AIR SEA DIR/SP/G
                 (UTC)          (F)     (DEG/KT/KT) (MB)    (MI)
JOHNY MRCER PIER NOT AVBL
NC RESRV MASNBRO NOT AVBL
OCEAN CREST PIER NOT AVBL
SPRINGMAID  PIER NOT AVBL


................COASTAL AND OFFSHORE BUOYS................


STATION/POSITION TIME  SKY/WX   TEMP    WIND        PRES    VSBY
                                AIR SEA DIR/SP/G
                 (UTC)          (F)     (DEG/KT/KT) (MB)    (MI)
DIMNDSHOAL 41025 2150            75 77  160/ 16/ 17 1024.0
WVE H/P(F/S)=  3/ 8 WND WVE H/P(F/S)=  2/ 5 SWL H/P/D(F/S/D)=  2/130/ 8

CAPE LOOKOUT     2200            74     160/ 13/ 15 1023.6F
ONSLOW BAY 41036 NOT AVBL
5 WRITEBCH 41038 NOT AVBL
MASONBORO  41110 NOT AVBL
WILM HARBR 41108 NOT AVBL
27WRITEBCH 41037 NOT AVBL
FRYING PAN 41013 2150            77 76  150/ 12/ 16 1023.9
WVE H/P(F/S)=  3/ 7 WND WVE H/P(F/S)=  2/ 4 SWL H/P/D(F/S/D)=  2/120/ 7

SUNST NRSH 41024 NOT AVBL
CAPRS NRSH 41029 NOT AVBL
EDISTO     41004 2150            78 78  130/ 10/ 10 1022.4
WVE H/P(F/S)=  3/ 7 WND WVE H/P(F/S)=  2/ 4 SWL H/P/D(F/S/D)=  2/ 7



..........OFFSHORE BUOYS BEYOND 100 NM OFFSHORE...........
.....IN A TRIANGLE---HAT TO BERMUDA TO BAHAMAS TO HAT.....


STATION/POSITION TIME  SKY/WX   TEMP    WIND        PRES    VSBY
                                AIR SEA DIR/SP/G
                 (UTC)          (F)     (DEG/KT/KT) (MB)    (MI)
150E HAT   41001 NOT AVBL
W BERMUDA  41048 2150            72 74   50/ 17/ 23 1022.3
WVE H/P(F/S)=  8/ 8 WND WVE H/P(F/S)=  7/ 5 SWL H/P/D(F/S/D)=  5/ 90/ 8

ATLANTIC S 41049 2150            75 78   90/ 14/ 16 1016.0
WVE H/P(F/S)=  7/ 9 WND WVE H/P(F/S)=  3/ 5 SWL H/P/D(F/S/D)=  7/ 30/ 9

E BAHAMAS  41046 2150            78 81   50/ 14/ 17 1015.7
WVE H/P(F/S)=  7/ 9 WND WVE H/P(F/S)=  5/ 5 SWL H/P/D(F/S/D)=  5/ 40/ 9

NE BAHAMAS 41047 2150            75 78   50/ 17/ 21 1018.9
WVE H/P(F/S)=  8/ 9 WND WVE H/P(F/S)=  7/ 8 SWL H/P/D(F/S/D)=  3/ 70/ 9

120E CANVRL41010 2220            78 80   80/ 14/ 16 1021.6F

END



USA.gov is the U.S. government's official web portal to all federal, state and local government web resources and services.